Date String (YYYY-MM-DD hh:mm:ss) UTC,Instrument flags,Ambient pressure (hPa),Sample flow (lpm),Bypass flow (lpm),Sample temperature (°C),Ambient temperature (°C),ASC tube jacket temperature (°C),LED temperature (°C),Box temperature (°C),Sample RH (%),Span deviation,Mass concentration (μg/m³),Mass concentration (μg/m³),Mass concentration (μg/m³)
DateTimeUTC,F1_M11,P_M11,Q1_M11,Q2_M11,T1_M11,T2_M11,T3_M11,T4_M11,T5_M11,U1_M11,ZSPAN_M11,X2_M11,X0_M11,X1_M11
2023-05-01 23:00:00,,0826.6,5.00,0.00,30.3,29.2,00.0,38.6,31.9,12.0,0003.8,0013.64,0031.46,0010.91
2023-05-01 23:01:00,,0826.6,4.99,0.00,30.3,29.2,00.0,38.6,31.9,11.8,0003.7,0014.06,0030.52,0011.30
2023-05-01 23:02:00,,0826.6,4.99,0.00,30.3,29.2,00.0,38.6,31.9,12.0,0004.0,0014.42,0030.39,0011.65
2023-05-01 23:03:00,,0826.6,5.00,0.00,30.3,29.2,00.0,38.7,31.9,12.2,0004.6,0014.65,0029.42,0011.90
2023-05-01 23:04:00,,0826.6,5.01,0.00,30.4,29.2,00.0,38.7,31.9,12.2,0004.8,0014.86,0029.19,0012.06
2023-05-01 23:05:00,,0826.6,5.01,0.00,30.4,29.2,00.0,38.7,31.9,12.1,0004.8,0015.06,0028.14,0012.28
2023-05-01 23:06:00,,0826.6,4.99,0.00,30.4,29.2,00.0,38.7,32.0,11.9,0004.8,0015.30,0028.51,0012.50
2023-05-01 23:07:00,,0826.5,4.99,0.00,30.4,29.2,00.0,38.7,32.0,11.9,0004.9,0015.48,0029.16,0012.72
2023-05-01 23:08:00,,0826.6,5.01,0.00,30.4,29.3,00.0,38.7,32.0,11.8,0004.9,0015.78,0029.93,0013.00
2023-05-01 23:09:00,,0826.6,5.01,0.00,30.4,29.3,00.0,38.8,32.0,11.8,0005.1,0016.08,0030.72,0013.27
2023-05-01 23:10:00,,0826.6,5.01,0.00,30.5,29.3,00.0,38.8,32.0,11.9,0005.2,0016.29,0032.11,0013.46
2023-05-01 23:11:00,,0826.6,5.00,0.00,30.5,29.2,00.0,38.8,32.0,11.8,0005.2,0016.45,0032.92,0013.59
2023-05-01 23:12:00,,0826.5,4.98,0.00,30.5,27.6,00.0,38.7,31.9,11.8,0005.3,0016.51,0032.97,0013.65
2023-05-01 23:13:00,,0826.4,5.01,0.00,30.4,26.5,00.0,38.6,31.7,12.1,0005.5,0016.53,0032.91,0013.64
2023-05-01 23:14:00,,0826.4,5.01,0.00,30.3,26.5,00.0,38.6,31.6,12.5,0005.4,0016.59,0031.60,0013.66
2023-05-01 23:15:00,,0826.4,5.01,0.00,30.3,26.8,00.0,38.6,31.5,12.2,0005.3,0016.71,0032.96,0013.79
2023-05-01 23:16:00,,0826.6,5.00,0.00,30.2,27.1,00.0,38.6,31.5,12.2,0005.0,0016.81,0033.20,0013.91
2023-05-01 23:17:00,,0826.6,5.00,0.00,30.2,27.5,00.0,38.6,31.6,12.0,0005.3,0016.97,0033.49,0014.04
2023-05-01 23:18:00,,0826.6,5.00,0.00,30.2,27.8,00.0,38.6,31.7,12.3,0005.0,0017.12,0033.24,0014.18
2023-05-01 23:19:00,,0826.6,5.00,0.00,30.2,28.1,00.0,38.6,31.7,12.2,0004.9,0017.20,0032.45,0014.33
2023-05-01 23:20:00,,0826.6,5.00,0.00,30.2,28.3,00.0,38.6,31.8,12.3,0004.8,0017.26,0032.87,0014.41
2023-05-01 23:21:00,,0826.6,5.00,0.00,30.3,28.5,00.0,38.6,31.8,12.1,0004.4,0017.37,0033.13,0014.53
2023-05-01 23:22:00,,0826.6,5.00,0.00,30.3,28.7,00.0,38.6,31.8,11.9,0004.3,0017.44,0033.23,0014.62
2023-05-01 23:23:00,,0826.6,4.98,0.00,30.3,28.8,00.0,38.7,31.8,12.0,0004.2,0017.52,0033.88,0014.70
2023-05-01 23:24:00,,0826.6,5.02,0.00,30.3,28.9,00.0,38.7,31.9,12.0,0004.0,0017.67,0033.82,0014.81
2023-05-01 23:25:00,,0826.6,5.00,0.00,30.3,28.9,00.0,38.7,31.9,12.0,0003.9,0017.73,0034.26,0014.91
2023-05-01 23:26:00,,0826.6,4.98,0.00,30.3,29.0,00.0,38.7,31.9,12.3,0004.0,0017.72,0033.99,0014.96
2023-05-01 23:27:00,,0826.6,5.00,0.00,30.4,29.0,00.0,38.7,31.9,12.3,0004.0,0017.71,0035.42,0014.98
2023-05-01 23:28:00,,0826.6,5.01,0.00,30.4,29.1,00.0,38.7,31.9,12.1,0003.6,0017.67,0037.41,0014.96
2023-05-01 23:29:00,,0826.6,5.01,0.00,30.4,29.1,00.0,38.7,32.0,12.1,0003.1,0017.61,0037.72,0014.93
2023-05-01 23:30:00,,0826.6,5.01,0.00,30.4,29.2,00.0,38.7,32.0,12.4,0003.2,0017.61,0040.47,0014.87
2023-05-01 23:31:00,,0826.6,5.00,0.00,30.4,29.2,00.0,38.8,32.0,12.4,0003.2,0017.68,0041.40,0014.82
2023-05-01 23:32:00,,0826.6,4.99,0.00,30.4,29.2,00.0,38.8,32.0,12.2,0003.0,0017.53,0039.92,0014.75
2023-05-01 23:33:00,,0826.6,4.99,0.00,30.4,29.0,00.0,38.8,32.0,12.3,0003.5,0017.35,0039.65,0014.58
2023-05-01 23:34:00,,0826.5,5.00,0.00,30.4,27.3,00.0,38.7,31.8,12.3,0003.8,0017.22,0038.59,0014.43
2023-05-01 23:35:00,,0826.4,5.01,0.00,30.4,26.4,00.0,38.6,31.6,12.7,0003.7,0016.94,0038.93,0014.16
2023-05-01 23:36:00,,0826.4,5.01,0.00,30.3,26.5,00.0,38.6,31.5,12.8,0004.1,0016.54,0038.52,0013.71
2023-05-01 23:37:00,,0826.4,4.99,0.00,30.2,26.7,00.0,38.6,31.4,12.6,0003.9,0016.23,0037.23,0013.33
2023-05-01 23:38:00,,0826.4,4.99,0.00,30.2,27.1,00.0,38.6,31.5,12.6,0004.0,0015.85,0036.62,0012.97
2023-05-01 23:39:00,,0826.4,5.00,0.00,30.2,27.4,00.0,38.6,31.6,12.8,0004.3,0015.52,0035.21,0012.62
2023-05-01 23:40:00,,0826.4,5.00,0.00,30.2,27.8,00.0,38.6,31.6,12.7,0004.3,0015.20,0034.35,0012.32
2023-05-01 23:41:00,,0826.4,5.01,0.00,30.2,28.0,00.0,38.6,31.7,12.9,0004.2,0014.92,0032.36,0012.04
2023-05-01 23:42:00,,0826.4,4.99,0.00,30.2,28.3,00.0,38.6,31.8,12.9,0004.2,0014.49,0031.00,0011.74
2023-05-01 23:43:00,,0826.4,4.99,0.00,30.2,28.5,00.0,38.6,31.7,12.9,0004.5,0014.22,0031.05,0011.43
2023-05-01 23:44:00,,0826.4,4.99,0.00,30.2,28.6,00.0,38.6,31.8,12.7,0004.1,0014.03,0030.73,0011.19
2023-05-01 23:45:00,,0826.5,5.00,0.00,30.2,28.7,00.0,38.6,31.8,12.7,0004.0,0013.80,0030.11,0010.95
2023-05-01 23:46:00,,0826.6,5.02,0.00,30.3,28.8,00.0,38.6,31.8,13.0,0004.2,0013.66,0029.69,0010.81
2023-05-01 23:47:00,,0826.6,5.00,0.00,30.3,28.9,00.0,38.6,31.9,12.7,0004.2,0013.67,0029.88,0010.83
2023-05-01 23:48:00,,0826.6,4.99,0.00,30.3,29.0,00.0,38.6,31.9,12.5,0004.2,0013.66,0029.88,0010.88
2023-05-01 23:49:00,,0826.6,4.99,0.00,30.3,29.0,00.0,38.7,31.9,12.4,0004.0,0013.58,0028.60,0010.82
2023-05-01 23:50:00,,0826.6,5.00,0.00,30.4,29.1,00.0,38.7,32.0,12.5,0003.9,0013.56,0027.91,0010.77
2023-05-01 23:51:00,,0826.6,5.00,0.00,30.4,29.1,00.0,38.7,32.0,12.6,0004.2,0013.43,0027.60,0010.63
2023-05-01 23:52:00,,0826.6,5.01,0.00,30.4,29.2,00.0,38.7,32.0,12.7,0004.4,0013.23,0028.23,0010.46
2023-05-01 23:53:00,,0826.6,5.00,0.00,30.4,29.2,00.0,38.7,32.0,12.7,0004.3,0013.13,0027.63,0010.33
2023-05-01 23:54:00,,0826.5,5.00,0.00,30.4,29.2,00.0,38.7,32.0,12.5,0004.6,0013.09,0027.02,0010.27
2023-05-01 23:55:00,,0826.5,5.00,0.00,30.5,29.2,00.0,38.8,32.0,12.7,0004.9,0013.05,0027.72,0010.17
2023-05-01 23:56:00,,0826.5,5.00,0.00,30.5,29.3,00.0,38.8,32.1,12.5,0004.9,0012.89,0027.60,0010.04
2023-05-01 23:57:00,,0826.4,5.00,0.00,30.5,29.3,00.0,38.8,32.1,12.5,0004.7,0012.79,0028.26,0009.96
2023-05-01 23:58:00,,0826.4,4.99,0.00,30.5,28.5,00.0,38.8,32.0,12.5,0004.9,0012.67,0029.04,0009.82
2023-05-01 23:59:00,,0826.4,5.00,0.00,30.5,26.8,00.0,38.7,31.8,12.5,0005.1,0012.47,0028.54,0009.60
